[[[{"header":{"parameterUnit":"kt","parameterCategory":2,"dx":1,"dy":1,"la1":30.253999710083008,"la2":30.299108505249023,"lo1":-89.0895004272461,"lo2":-89.04439544677734,"nx":28,"ny":28,"refTime":"2022-10-31T21:00:00:Z","depth":0,"parameterNumber":1,"parameterNumberName":"U-component_of_WINDS"},"data":[-4.6917,-4.6999,-4.6998,-4.7092,-4.7106,-4.7171,-4.7193,-4.7222,-4.7245,-4.7322,-4.7366,-4.7373,-4.7395,-4.7448,-4.7496,-4.7498,-4.7521,-4.7551,-4.7549,-4.7411,-4.7392,-4.7373,-4.7355,-4.7555,-4.7555,-4.7694,-4.7696,-4.7697,-4.6821,-4.6837,-4.6885,-4.6931,-4.6973,-4.6943,-4.6977,-4.7014,-4.7072,-4.71,-4.7142,-4.7209,-4.7261,-4.7273,-4.7324,-4.7364,-4.7353,-4.7378,-4.7377,-4.7382,-4.7233,-4.7213,-4.7386,-4.7386,-4.7386,-4.7386,-4.7386,-4.7386,-4.6646,-4.6694,-4.6721,-4.6773,-4.6795,-4.6826,-4.6872,-4.6879,-4.6926,-4.6978,-4.6965,-4.7031,-4.7058,-4.7117,-4.7136,-4.7188,-4.716,-4.7187,-4.7195,-4.7203,-4.7214,-4.7021,-4.7195,-4.7195,-4.7194,-4.7194,-4.7194,0,-4.6519,-4.6515,-4.6559,-4.6605,-4.6642,-4.6676,-4.6707,-4.6735,-4.6724,-4.6763,-4.682,-4.6852,-4.6916,-4.697,-4.7015,-4.7029,-4.7004,-4.6999,-4.7018,-4.7028,-4.7032,-4.7036,-4.6797,-4.6995,-4.6993,-4.6992,-4.6991,-4.699,-4.6346,-4.64,-4.6426,-4.6458,-4.6474,-4.6525,-4.6555,-4.654,-4.6573,-4.6609,-4.6653,-4.6705,-4.6746,-4.6837,-4.6844,-4.6892,-4.688,-4.6957,-4.6887,-4.6894,-4.6887,-4.6886,-4.6893,-4.6972,-4.6974,-4.6976,-4.6977,0,-4.625,-4.6245,-4.6329,-4.6348,-4.6354,-4.6413,-4.6429,-4.6476,-4.6476,-4.6541,-4.6555,-4.6556,-4.6612,-4.6606,-4.6666,-4.6662,-4.6763,-4.6748,-4.6755,-4.6753,-4.6824,-4.682,-4.7048,-4.7078,-4.6866,-4.6868,-4.687,0,-4.6103,-4.6174,-4.6164,-4.6212,-4.6292,-4.6274,-4.6354,-4.6362,-4.6383,-4.6434,-4.6401,-4.645,-4.6433,-4.6481,-4.6475,-4.6555,-4.6565,-4.6568,-4.6566,-4.6573,-4.6574,-4.6593,-4.6586,-4.6553,-4.6552,-4.6551,-4.655,0,-4.5956,-4.6031,-4.6109,-4.6126,-4.6153,-4.619,-4.6203,-4.6225,-4.6255,-4.6291,-4.631,-4.6353,-4.6378,-4.6413,-4.6404,-4.6358,-4.65,-4.6434,-4.6504,-4.6504,-4.6538,-4.6537,-4.6737,-4.6549,-4.6548,-4.6548,-4.6548,0,-4.5837,-4.5873,-4.5985,-4.6007,-4.6028,-4.6078,-4.612,-4.6161,-4.6188,-4.6186,-4.6214,-4.6192,-4.6258,-4.6195,-4.6287,-4.623,-4.6256,-4.6264,-4.6268,-4.6277,-4.6207,-4.6326,-4.6514,-4.6535,-4.6282,-4.628,-4.6278,0,-4.5672,-4.5783,-4.5768,-4.5875,-4.5925,-4.5887,-4.5942,-4.5966,-4.5968,-4.6012,-4.6014,-4.6064,-4.6015,-4.6029,-4.6075,-4.6081,-4.6155,-4.607,-4.6138,-4.6141,-4.6137,-4.6309,-4.634,-4.6473,-4.6249,-4.6252,-4.6254,0,-4.5544,-4.5573,-4.5593,-4.5612,-4.5639,-4.568,-4.5743,-4.5788,-4.5818,-4.5846,-4.5901,-4.5967,-4.5934,-4.5958,-4.5944,-4.5992,-4.6104,-4.595,-4.595,-4.5982,-4.6232,-4.6263,-4.6285,-4.6084,-4.6088,-4.6091,-4.6232,0,-4.5373,-4.5426,-4.5478,-4.5517,-4.5547,-4.5611,-4.5603,-4.5636,-4.562,-4.562,-4.5698,-4.5713,-4.5759,-4.5779,-4.5763,-4.5874,-4.5855,-4.5818,-4.5758,-4.5869,-4.5916,-4.5934,-4.569,-4.5688,-4.5686,-4.5685,0,0,-4.5219,-4.5294,-4.5275,-4.5334,-4.5359,-4.5316,-4.5387,-4.5405,-4.5443,-4.5462,-4.5427,-4.5525,-4.5538,-4.5634,-4.5668,-4.5684,-4.5705,-4.5665,-4.5815,-4.583,-4.5843,-4.5893,-4.5913,-4.5682,-4.5682,-4.5681,-4.5681,0,-4.5156,-4.5169,-4.5237,-4.5255,-4.5281,-4.5277,-4.5294,-4.5312,-4.5315,-4.5389,-4.5354,-4.5399,-4.5475,-4.5496,-4.5517,-4.5653,-4.5625,-4.5666,-4.5744,-4.58,-4.5816,-4.5831,-4.5884,-4.5902,-4.5677,-4.5677,-4.5677,0,-4.5031,-4.5044,-4.5075,-4.5125,-4.5141,-4.5192,-4.5127,-4.5182,-4.5221,-4.5171,-4.5245,-4.5252,-4.5278,-4.5367,-4.5407,-4.5377,-4.5553,-4.5494,-4.5503,-4.5508,-4.5562,-4.5582,-4.56,-4.5366,-4.5365,-4.5364,0,0,-4.4977,-4.5025,-4.5033,-4.5111,-4.5123,-4.5118,-4.5144,-4.513,-4.5153,-4.5162,-4.5171,-4.5196,-4.524,-4.527,-4.5311,-4.5409,-4.5415,-4.5456,-4.547,-4.5482,-4.5494,-4.5551,-4.5571,-4.5361,-4.536,-4.536,0,0,-4.4952,-4.4964,-4.4943,-4.5032,-4.5055,-4.5069,-4.5117,-4.5091,-4.5127,-4.5119,-4.5097,-4.5103,-4.5185,-4.5193,-4.5142,-4.529,-4.523,-4.5241,-4.5282,-4.53,-4.5314,-4.5312,-4.5078,0,0,0,0,0,-4.4882,-4.4963,-4.4943,-4.4957,-4.5019,-4.5079,-4.5087,-4.5071,-4.503,-4.5069,-4.5072,-4.5039,-4.5162,-4.5116,-4.513,-4.5188,-4.531,-4.5319,-4.5327,-4.5402,-4.5421,-4.5438,0,0,0,0,0,0,-4.4887,-4.4903,-4.4941,-4.4958,-4.4972,-4.5076,-4.5003,-4.5001,-4.5026,-4.5018,-4.5039,-4.504,-4.5027,-4.5108,-4.5121,-4.5176,-4.5073,-4.5314,-4.5321,-4.5328,-4.5409,-4.5425,-4.5438,0,0,0,0,0,-4.4891,-4.4904,-4.5008,-4.4957,-4.4969,-4.4967,-4.5,-4.4998,-4.5016,-4.5021,-4.502,-4.5002,-4.5029,-4.5039,-4.5115,-4.5171,-4.5064,-4.5069,-4.5318,-4.5324,-4.533,-4.5417,0,0,0,0,0,0,-4.4894,-4.4903,-4.501,-4.5013,-4.4925,-4.4961,-4.4966,-4.4995,-4.5017,-4.5017,-4.4982,-4.4976,-4.5032,-4.5039,-4.5046,-4.517,-4.5057,-4.5062,-4.5065,-4.5323,-4.5328,-4.5332,0,0,0,0,0,0,-4.4895,-4.4906,-4.5012,-4.4972,-4.497,-4.4956,-4.496,-4.5022,-4.5018,-4.4977,-4.4972,-4.4979,-4.502,-4.5039,-4.5045,-4.5142,-4.5051,-4.5056,-4.5059,-4.5062,-4.5327,-4.5331,0,0,0,0,0,0,-4.4899,-4.4908,-4.4971,-4.497,-4.4968,-4.5002,-4.501,-4.5075,-4.4983,-4.4976,-4.4975,-4.4971,-4.5022,-4.5027,-4.5044,-4.5139,-4.5141,-4.5052,-4.5055,-4.5057,-4.5059,0,0,0,0,0,0,0,-4.4903,-4.4848,-4.4992,-4.4968,-4.4967,-4.5042,-4.5043,-4.5044,-4.4982,-4.4979,-4.4976,-4.4972,-4.5025,-4.503,-4.5035,-4.5136,0,0,-4.5051,-4.5053,0,0,0,0,0,0,0,0,-4.4844,-4.4847,-4.4992,-4.4992,-4.4993,-4.5042,-4.5043,-4.5044,-4.4982,-4.4979,-4.4976,-4.4974,-4.5026,-4.503,-4.5034,0,0,0,0,0,0,0,0,0,0,0,0,0,0,0,-4.4992,-4.4992,0,-4.5042,-4.5043,-4.5043,-4.4981,-4.4979,-4.4977,-4.4975,-4.5027,-4.5031,-4.5034,0,0,0,0,0,0,0,0,0,0,0,0,0,0,0,0,0,0,0,0,0,0,0,0,0,0,0,0,0,0,0,0,0,0,0,0,0,0,0,0,0,0,0,0,0,0,0,0,0,0,0,0,0,0,0,0,0,0,0,0,0,0,0,0,0,0,0,0,0]}],[{"header":{"parameterUnit":"kt","parameterCategory":2,"dx":1,"dy":1,"la1":30.253999710083008,"la2":30.299108505249023,"lo1":-89.0895004272461,"lo2":-89.04439544677734,"nx":28,"ny":28,"refTime":"2022-10-31T21:00:00:Z","depth":0,"parameterNumber":2,"parameterNumberName":"V-component_of_WINDS"},"data":[-4.2023,-4.2044,-4.2019,-4.203,-4.201,-4.2014,-4.2007,-4.1995,-4.198,-4.1981,-4.1978,-4.1954,-4.1929,-4.1918,-4.1913,-4.1902,-4.1902,-4.1928,-4.1911,-4.1818,-4.1803,-4.1789,-4.1783,-4.1928,-4.1928,-4.2011,-4.2012,-4.2013,-4.1959,-4.1939,-4.1938,-4.1919,-4.1918,-4.1878,-4.186,-4.1862,-4.1866,-4.1847,-4.1841,-4.184,-4.1836,-4.18,-4.1792,-4.1801,-4.1781,-4.18,-4.18,-4.1796,-4.1695,-4.1689,-4.1816,-4.1816,-4.1816,-4.1816,-4.1816,-4.1816,-4.1835,-4.1848,-4.1822,-4.182,-4.1803,-4.1791,-4.1799,-4.177,-4.1768,-4.1756,-4.1725,-4.1729,-4.1705,-4.1682,-4.1667,-4.167,-4.1644,-4.1656,-4.166,-4.1664,-4.1672,-4.1557,-4.1667,-4.1666,-4.1666,-4.1665,-4.1665,0,-4.1736,-4.1715,-4.1711,-4.17,-4.1697,-4.1686,-4.1671,-4.1676,-4.1619,-4.162,-4.1619,-4.1614,-4.1603,-4.1599,-4.1585,-4.1567,-4.1525,-4.1517,-4.1526,-4.1542,-4.1558,-4.155,-4.1388,-4.1514,-4.1513,-4.1512,-4.1511,-4.1511,-4.161,-4.1628,-4.1588,-4.1589,-4.1574,-4.1576,-4.1572,-4.1521,-4.1519,-4.1493,-4.1507,-4.1502,-4.1495,-4.1497,-4.1461,-4.1453,-4.1433,-4.1484,-4.1431,-4.1446,-4.1435,-4.1434,-4.1436,-4.1496,-4.1498,-4.1499,-4.1501,0,-4.1542,-4.1499,-4.1518,-4.1476,-4.1465,-4.1487,-4.145,-4.1461,-4.143,-4.144,-4.144,-4.1392,-4.1391,-4.1347,-4.1336,-4.1313,-4.1349,-4.1328,-4.1357,-4.1351,-4.1393,-4.139,-4.1535,-4.1551,-4.14,-4.1401,-4.1403,0,-4.1418,-4.1442,-4.1377,-4.139,-4.1416,-4.1363,-4.1391,-4.1367,-4.1344,-4.1351,-4.1296,-4.1304,-4.1245,-4.1247,-4.1213,-4.1233,-4.1231,-4.1215,-4.1206,-4.122,-4.1223,-4.1219,-4.1212,-4.1183,-4.1182,-4.1181,-4.1181,0,-4.1315,-4.1309,-4.133,-4.1321,-4.1278,-4.1289,-4.1272,-4.1245,-4.1241,-4.1229,-4.1226,-4.1216,-4.121,-4.1203,-4.116,-4.1126,-4.1183,-4.1127,-4.1166,-4.1168,-4.1182,-4.1182,-4.1321,-4.118,-4.118,-4.1179,-4.1179,0,-4.1208,-4.1197,-4.1233,-4.1196,-4.1196,-4.121,-4.1196,-4.1197,-4.1173,-4.1152,-4.1142,-4.1099,-4.1112,-4.106,-4.1078,-4.1047,-4.1045,-4.103,-4.1032,-4.103,-4.0974,-4.1059,-4.1195,-4.1208,-4.1029,-4.1028,-4.1027,0,-4.1104,-4.1128,-4.1082,-4.1118,-4.1123,-4.106,-4.1074,-4.1054,-4.1027,-4.1027,-4.0997,-4.0998,-4.0949,-4.0943,-4.0958,-4.0927,-4.0968,-4.092,-4.0922,-4.0923,-4.0931,-4.1056,-4.1088,-4.117,-4.101,-4.1012,-4.1013,0,-4.1017,-4.0963,-4.0972,-4.096,-4.0925,-4.0928,-4.0944,-4.0933,-4.0936,-4.0919,-4.0931,-4.093,-4.0894,-4.0884,-4.0848,-4.0866,-4.0939,-4.0824,-4.0823,-4.0847,-4.0998,-4.1028,-4.1042,-4.0911,-4.0913,-4.0914,-4.1,0,-4.0866,-4.0872,-4.0896,-4.087,-4.0866,-4.0885,-4.0836,-4.0838,-4.0804,-4.0774,-4.0791,-4.0762,-4.075,-4.0753,-4.072,-4.0774,-4.0758,-4.0719,-4.0665,-4.0747,-4.0774,-4.0785,-4.0629,-4.0627,-4.0625,-4.0624,0,0,-4.0777,-4.0784,-4.0732,-4.0745,-4.0739,-4.0672,-4.0697,-4.0682,-4.0654,-4.0651,-4.0621,-4.0616,-4.0594,-4.0619,-4.0641,-4.0636,-4.0641,-4.0614,-4.0708,-4.0718,-4.0727,-4.0757,-4.0769,-4.0621,-4.062,-4.062,-4.0619,0,-4.0712,-4.069,-4.0715,-4.0697,-4.0669,-4.0636,-4.0642,-4.0603,-4.0585,-4.06,-4.0545,-4.0549,-4.0546,-4.053,-4.0521,-4.061,-4.0568,-4.0609,-4.0674,-4.0694,-4.0706,-4.0716,-4.0748,-4.076,-4.0616,-4.0616,-4.0616,0,-4.0618,-4.0589,-4.0595,-4.0575,-4.0556,-4.0562,-4.0494,-4.0503,-4.0507,-4.0434,-4.045,-4.0427,-4.0401,-4.0431,-4.0442,-4.0415,-4.0504,-4.0467,-4.0475,-4.0476,-4.0493,-4.0507,-4.052,-4.0354,-4.0353,-4.0352,0,0,-4.0569,-4.0573,-4.0525,-4.0557,-4.0549,-4.05,-4.0498,-4.0463,-4.0441,-4.0432,-4.0402,-4.0382,-4.0379,-4.0379,-4.0374,-4.0414,-4.0404,-4.0437,-4.0449,-4.0459,-4.0465,-4.0485,-4.0499,-4.035,-4.035,-4.035,0,0,-4.0545,-4.049,-4.0459,-4.049,-4.0471,-4.0425,-4.0447,-4.0408,-4.0398,-4.039,-4.0332,-4.0324,-4.0351,-4.033,-4.03,-4.0354,-4.0302,-4.0308,-4.0367,-4.0381,-4.0394,-4.0398,-4.0226,0,0,0,0,0,-4.0452,-4.0496,-4.0469,-4.0467,-4.044,-4.0441,-4.0437,-4.0389,-4.0353,-4.0372,-4.034,-4.0295,-4.0302,-4.0274,-4.0273,-4.0307,-4.0315,-4.0321,-4.0327,-4.0412,-4.0428,-4.0442,0,0,0,0,0,0,-4.0451,-4.0449,-4.0467,-4.0425,-4.0418,-4.0438,-4.0367,-4.0355,-4.035,-4.0341,-4.0303,-4.0294,-4.0254,-4.0272,-4.0271,-4.0305,-4.0226,-4.0318,-4.0323,-4.0328,-4.0417,-4.0431,-4.0442,0,0,0,0,0,-4.045,-4.0448,-4.0418,-4.0424,-4.0418,-4.0366,-4.0365,-4.0355,-4.035,-4.03,-4.029,-4.0314,-4.0256,-4.0252,-4.0271,-4.0306,-4.0226,-4.0226,-4.0321,-4.0325,-4.0329,-4.0424,0,0,0,0,0,0,-4.0449,-4.0438,-4.0416,-4.0412,-4.0403,-4.0363,-4.0355,-4.0354,-4.0308,-4.0299,-4.0309,-4.0303,-4.0258,-4.0255,-4.0252,-4.0309,-4.0226,-4.0226,-4.0226,-4.0324,-4.0327,-4.033,0,0,0,0,0,0,-4.0439,-4.0436,-4.0414,-4.0391,-4.0384,-4.0362,-4.0355,-4.0364,-4.0308,-4.0319,-4.0312,-4.0307,-4.0261,-4.0257,-4.0255,-4.027,-4.0226,-4.0226,-4.0226,-4.0226,-4.0327,-4.0329,0,0,0,0,0,0,-4.0437,-4.0434,-4.0391,-4.0387,-4.0381,-4.0338,-4.0369,-4.0344,-4.0289,-4.0322,-4.0282,-4.028,-4.0265,-4.0262,-4.0257,-4.0274,-4.0271,-4.0226,-4.0226,-4.0226,-4.0226,0,0,0,0,0,0,0,-4.0435,-4.0465,-4.0437,-4.0383,-4.0378,-4.0381,-4.038,-4.0379,-4.0288,-4.0286,-4.0283,-4.0281,-4.0225,-4.0225,-4.0225,-4.0276,0,0,-4.0226,-4.0226,0,0,0,0,0,0,0,0,-4.0465,-4.0465,-4.0436,-4.0436,-4.0435,-4.038,-4.038,-4.0379,-4.0288,-4.0286,-4.0284,-4.0282,-4.0225,-4.0225,-4.0225,0,0,0,0,0,0,0,0,0,0,0,0,0,0,0,-4.0436,-4.0436,0,-4.038,-4.038,-4.0379,-4.0287,-4.0286,-4.0284,-4.0282,-4.0225,-4.0225,-4.0225,0,0,0,0,0,0,0,0,0,0,0,0,0,0,0,0,0,0,0,0,0,0,0,0,0,0,0,0,0,0,0,0,0,0,0,0,0,0,0,0,0,0,0,0,0,0,0,0,0,0,0,0,0,0,0,0,0,0,0,0,0,0,0,0,0,0,0,0,0]}]]]